Location: Torch Lake Township
(45.0753°N, 85.3586°W)
Time: 23:29:37
(UTC-04:00)

Amateur Radio Satellites - All Passes

Search period start: 28 March 2017 22:59
Search period end: 29 March 2017 22:59
Location: Torch Lake Township, 45.0753°N, 85.3586°W

Satellite Date Start Highest point End Downlink Frequencies (MHz)
Time Altitude Azimuth
AO-85 28 Mar 23:02:34 23:06:00 23° 318° (NW) 23:09:19 145.980
LO-87 28 Mar 23:12:20 23:15:30 29° 69° (ENE) 23:18:40 145.935 - 145.965
STRAND 1 28 Mar 23:17:33 23:18:35 11° 306° (NW) 23:19:38 437.568
TIGRISAT 28 Mar 23:51:37 23:56:02 70° 102° (ESE) 00:00:19 435.000
BEESAT 3 28 Mar 23:51:57 23:55:45 45° 311° (NW) 23:59:37 437.485
VELOX 1 28 Mar 23:59:55 00:03:10 20° 63° (ENE) 00:06:26 145.980
UNISAT 6 29 Mar 00:02:35 00:07:01 83° 287° (WNW) 00:11:21 437.425
PRISM 29 Mar 00:03:24 00:07:20 41° 290° (WNW) 00:11:15 437.425
SO-50 29 Mar 00:09:00 00:13:30 71° 237° (WSW) 00:17:57 436.795
Tancredo 1 29 Mar 00:10:09 00:12:49 24° 360° (N) 00:15:29 437.200
BEESAT 2 29 Mar 00:13:03 00:17:00 66° 307° (NW) 00:21:01 435.950
FO-29 29 Mar 00:18:49 00:24:49 73° 103° (ESE) 00:30:12 435.910
ISS 29 Mar 00:21:43 00:24:30 25° 0° (N) 00:27:18 437.550
SPROUT 29 Mar 00:24:13 00:27:56 29° 67° (ENE) 00:31:40 437.525
POLYITAN 1 29 Mar 00:30:49 00:33:33 17° 91° (E) 00:36:16 437.675
ESTCUBE 1 29 Mar 00:33:43 00:38:09 63° 259° (W) 00:42:36 437.505/2401.250
QB50P2 29 Mar 00:35:15 00:38:24 20° 93° (E) 00:41:32 145.880/145.840
DUCHIFAT 1 29 Mar 00:43:31 00:46:30 19° 92° (E) 00:49:28 145.980
LO-87 29 Mar 00:46:17 00:48:59 20° 267° (W) 00:51:41 145.935 - 145.965
RS-15 29 Mar 00:53:06 01:01:35 23° 262° (W) 01:09:51 29.354- 29.394
DX 1 29 Mar 01:03:40 01:07:40 37° 69° (ENE) 01:11:42 434.975-435.025
AIST 2D 29 Mar 01:15:20 01:18:51 81° 283° (WNW) 01:22:19 435.315
50 SAT 29 Mar 01:27:41 01:31:07 76° 258° (WSW) 01:34:36 437.505
TIGRISAT 29 Mar 01:29:56 01:32:08 14° 300° (WNW) 01:34:17 435.000
NANOSAT C BR1 29 Mar 01:30:08 01:34:21 66° 102° (ESE) 01:38:31 145.865
VELOX 1 29 Mar 01:35:05 01:39:18 45° 261° (W) 01:43:35 145.980
EO-79 29 Mar 01:36:24 01:40:40 84° 106° (ESE) 01:44:52 145.935-145.965
UKube-1 29 Mar 01:38:07 01:42:22 60° 73° (ENE) 01:46:39 .
UNISAT 6 29 Mar 01:42:39 01:42:57 10° 303° (WNW) 01:43:15 437.425
Tancredo 1 29 Mar 01:46:28 01:49:29 38° 19° (NNE) 01:52:31 437.200
BEESAT 2 29 Mar 01:53:51 01:55:34 12° 328° (NNW) 01:57:17 435.950
ISS 29 Mar 01:58:22 02:01:31 42° 20° (NNE) 02:04:41 437.550
SPROUT 29 Mar 02:00:04 02:03:48 28° 265° (W) 02:07:33 437.525
FO-29 29 Mar 02:05:05 02:09:09 19° 304° (NW) 02:12:56 435.910
POLYITAN 1 29 Mar 02:05:32 02:09:37 47° 289° (WNW) 02:13:39 437.675
QB50P2 29 Mar 02:10:23 02:14:21 39° 290° (WNW) 02:18:17 145.880/145.840
DUCHIFAT 1 29 Mar 02:18:24 02:22:22 41° 290° (WNW) 02:26:18 145.980
BUGSAT 1 29 Mar 02:23:29 02:27:41 77° 104° (ESE) 02:31:47 437.445
DX 1 29 Mar 02:40:32 02:43:58 22° 266° (W) 02:47:25 434.975-435.025
MOZHAYETS 4 29 Mar 02:41:33 02:42:15 10° 57° (ENE) 02:42:57
O/OREOS (USA 219) 29 Mar 02:41:42 02:46:06 42° 60° (ENE) 02:50:29 437.305
Oscar 19 29 Mar 02:44:25 02:49:16 39° 98° (E) 02:54:05 437.125/150
BEESAT 29 Mar 02:44:36 02:48:36 27° 65° (ENE) 02:52:36 436.000
ITUPSAT 1 29 Mar 03:02:10 03:06:34 38° 68° (ENE) 03:11:00 437.325
NANOSAT C BR1 29 Mar 03:07:25 03:09:32 14° 299° (WNW) 03:11:40 145.865
EO-79 29 Mar 03:14:31 03:15:46 11° 301° (WNW) 03:17:00 145.935-145.965
UKube-1 29 Mar 03:16:34 03:18:48 14° 270° (W) 03:21:02 .
Gurwin Techsat 1B 29 Mar 03:20:09 03:25:19 48° 99° (E) 03:30:25 435.225
Tancredo 1 29 Mar 03:22:36 03:25:38 40° 217° (SW) 03:28:39 437.200
ISS 29 Mar 03:34:54 03:37:59 36° 218° (SW) 03:41:02 437.550
BUGSAT 1 29 Mar 04:00:56 04:02:25 12° 301° (WNW) 04:03:53 437.445
AO-85 29 Mar 04:11:30 04:13:08 12° 33° (NNE) 04:14:46 145.980
MOZHAYETS 4 29 Mar 04:14:02 04:18:37 79° 76° (ENE) 04:23:13
O/OREOS (USA 219) 29 Mar 04:21:41 04:25:15 22° 258° (WSW) 04:28:47 437.305
BEESAT 29 Mar 04:21:47 04:26:12 38° 262° (W) 04:30:40 436.000
Oscar 19 29 Mar 04:24:00 04:28:27 30° 295° (WNW) 04:32:53 437.125/150
ITAMSAT 1 29 Mar 04:37:18 04:42:13 41° 98° (E) 04:47:05 435.822/435.867
ITUPSAT 1 29 Mar 04:40:28 04:44:29 26° 265° (W) 04:48:31 437.325
AO-7 29 Mar 04:46:32 04:54:19 42° 99° (E) 05:02:03 .
Gurwin Techsat 1B 29 Mar 05:00:39 05:04:59 26° 297° (WNW) 05:09:18 435.225
KKS-1 29 Mar 05:11:52 05:16:19 73° 74° (ENE) 05:20:48 437.445
CUBESAT XI-V 29 Mar 05:13:45 05:18:13 56° 72° (ENE) 05:22:44 437.345
STARS 29 Mar 05:40:11 05:44:34 65° 73° (ENE) 05:48:59 437.465
AO-85 29 Mar 05:50:19 05:54:15 71° 54° (NE) 05:58:15 145.980
MOZHAYETS 4 29 Mar 05:54:49 05:56:21 11° 272° (W) 05:57:53
DOVE 4 29 Mar 06:16:17 06:18:20 12° 85° (E) 06:20:21 437.250
ITAMSAT 1 29 Mar 06:17:06 06:21:31 29° 296° (WNW) 06:25:53 435.822/435.867
NO-84 29 Mar 06:24:52 06:26:34 15° 130° (SE) 06:28:16 435.350 FM
BEESAT 3 29 Mar 06:29:36 06:33:01 25° 43° (NE) 06:36:23 437.485
M-CUBED/EXP-1 PRIME 29 Mar 06:39:19 06:43:02 54° 67° (ENE) 06:47:06 437.505
AO-7 29 Mar 06:39:19 06:47:12 50° 299° (WNW) 06:55:03 .
XW-2C 29 Mar 06:47:08 06:48:24 11° 89° (E) 06:49:41 145.795 - 145.815
YUBILEINY 29 Mar 06:47:21 06:52:13 16° 74° (ENE) 06:57:03 435.215
CUTE-I 29 Mar 06:48:34 06:51:39 15° 89° (E) 06:54:42 437.470
KKS-1 29 Mar 06:51:35 06:53:23 12° 271° (W) 06:55:12 437.445
BEESAT 2 29 Mar 06:51:48 06:54:51 20° 40° (NE) 06:57:53 435.950
CUBESAT XI-V 29 Mar 06:53:04 06:55:57 16° 270° (W) 06:58:51 437.345
STRAND 1 29 Mar 07:14:52 07:19:15 29° 65° (ENE) 07:23:40 437.568
STARS 29 Mar 07:19:08 07:21:21 14° 270° (W) 07:23:34 437.465
AO-85 29 Mar 07:32:44 07:34:06 11° 250° (WSW) 07:35:28 145.980
XW-2F 29 Mar 07:35:09 07:38:41 40° 98° (E) 07:42:12 145.980 - 146.000
HO-68 29 Mar 07:38:46 07:41:46 13° 85° (E) 07:44:45 435.675
LilacSat-2 29 Mar 07:41:44 07:45:26 53° 100° (E) 07:49:06 437.200
DOVE 4 29 Mar 07:51:24 07:56:46 87° 105° (ESE) 08:01:58 437.250
NUDT-PHONESAT 29 Mar 07:51:51 07:55:28 53° 100° (E) 07:59:03 437.300
NO-84 29 Mar 08:01:00 08:03:48 51° 327° (NNW) 08:06:36 435.350 FM
XW-2D 29 Mar 08:02:51 08:06:37 85° 283° (WNW) 08:10:22 145.860 - 145.880
KAITUO 1B 29 Mar 08:02:51 08:06:34 75° 103° (ESE) 08:10:15 145.475/437.950
BEESAT 3 29 Mar 08:06:57 08:10:44 40° 242° (WSW) 08:14:28 437.485
CUTE 1.7 + AOD 2 29 Mar 08:08:04 08:10:11 13° 90° (E) 08:12:18 437.475
XW-2B 29 Mar 08:08:53 08:12:39 75° 284° (WNW) 08:16:22 145.730 - 145.750
M-CUBED/EXP-1 PRIME 29 Mar 08:15:56 08:17:56 14° 266° (W) 08:20:00 437.505
XW-2C 29 Mar 08:19:16 08:22:58 54° 286° (WNW) 08:26:37 145.795 - 145.815
CUTE-I 29 Mar 08:26:55 08:32:17 76° 287° (WNW) 08:37:36 437.470
BEESAT 2 29 Mar 08:28:58 08:32:58 58° 239° (WSW) 08:36:56 435.950
AO-7 29 Mar 08:34:24 08:38:01 14° 321° (NW) 08:41:38 .
YUBILEINY 29 Mar 08:38:46 08:47:29 79° 96° (E) 08:56:13 435.215
XW-2A 29 Mar 08:50:45 08:54:01 44° 100° (E) 08:57:14 145.665 - 145.685
STRAND 1 29 Mar 08:53:29 08:58:17 39° 262° (W) 09:03:07 437.568
FO-29 29 Mar 08:53:31 08:54:37 10° 48° (NE) 08:55:42 435.910
AAUSAT CUBESAT 2 29 Mar 09:05:53 09:08:49 18° 92° (E) 09:11:44 437.432
PCSat 29 Mar 09:06:54 09:10:31 18° 105° (ESE) 09:14:08 145.827
XW-2F 29 Mar 09:10:10 09:12:32 16° 295° (WNW) 09:14:53 145.980 - 146.000
UWE-3 29 Mar 09:16:35 09:19:49 21° 92° (E) 09:22:59 435.000/436.395/437.385
LilacSat-2 29 Mar 09:17:28 09:19:17 13° 297° (WNW) 09:21:06 437.200
TIGRISAT 29 Mar 09:19:24 09:20:13 10° 57° (ENE) 09:21:02 435.000
PRISM 29 Mar 09:20:21 09:23:09 18° 63° (ENE) 09:25:59 437.425
HO-68 29 Mar 09:23:31 09:30:43 72° 105° (ESE) 09:37:52 435.675
NUDT-PHONESAT 29 Mar 09:27:21 09:28:58 13° 297° (WNW) 09:30:35 437.300
UNISAT 6 29 Mar 09:28:45 09:31:09 14° 60° (ENE) 09:33:33 437.425
SEEDS 29 Mar 09:29:32 09:33:43 67° 101° (ESE) 09:37:54 437.485
DOVE 4 29 Mar 09:30:41 09:33:40 15° 302° (WNW) 09:36:37 437.250
Oscar 11 29 Mar 09:37:48 09:40:33 16° 91° (E) 09:43:16 .
NO-84 29 Mar 09:40:11 09:41:52 14° 348° (NNW) 09:43:36 435.350 FM
CUTE 1.7 + AOD 2 29 Mar 09:42:14 09:46:24 59° 286° (WNW) 09:50:33 437.475
ZACube-1 29 Mar 09:50:13 09:53:50 27° 95° (E) 09:57:21 437.345
CUBEBUG 2 29 Mar 09:55:54 10:00:20 88° 107° (ESE) 10:04:34 437.445
CUTE-I 29 Mar 10:09:15 10:11:26 13° 306° (NW) 10:13:36 437.470
AO-73 29 Mar 10:16:29 10:20:33 47° 98° (E) 10:24:33 145.935
XW-2A 29 Mar 10:24:58 10:26:24 12° 296° (WNW) 10:27:49 145.665 - 145.685
FO-29 29 Mar 10:30:52 10:38:07 46° 67° (ENE) 10:44:49 435.910
YUBILEINY 29 Mar 10:38:23 10:45:17 25° 297° (WNW) 10:52:15 435.215
AAUSAT CUBESAT 2 29 Mar 10:40:33 10:44:27 41° 289° (WNW) 10:48:22 437.432
PCSat 29 Mar 10:47:55 10:53:19 71° 304° (NW) 10:58:46 145.827
TIGRISAT 29 Mar 10:51:25 10:56:07 77° 74° (ENE) 11:00:45 435.000
UWE-3 29 Mar 10:52:27 10:56:26 37° 290° (WNW) 11:00:18 435.000/436.395/437.385
PRISM 29 Mar 10:54:14 10:58:08 43° 261° (W) 11:02:04 437.425
RS-15 29 Mar 11:01:39 11:05:06 12° 90° (E) 11:08:35 29.354- 29.394
UNISAT 6 29 Mar 11:02:34 11:07:16 77° 258° (WSW) 11:11:55 437.425
SEEDS 29 Mar 11:06:53 11:08:53 13° 299° (WNW) 11:10:52 437.485
HO-68 29 Mar 11:12:08 11:17:50 26° 304° (NW) 11:23:30 435.675
Oscar 11 29 Mar 11:12:48 11:16:58 50° 288° (WNW) 11:21:07 .
NO-84 29 Mar 11:18:46 11:20:24 14° 10° (N) 11:22:03 435.350 FM
POLYITAN 1 29 Mar 11:25:22 11:28:14 18° 63° (ENE) 11:31:06 437.675
ZACube-1 29 Mar 11:26:28 11:30:04 28° 293° (WNW) 11:33:38 437.345
QB50P2 29 Mar 11:29:46 11:32:57 21° 65° (ENE) 11:36:09 145.880/145.840
DELFI C3 29 Mar 11:32:09 11:36:10 88° 103° (ESE) 11:40:10 145.870
CUBEBUG 2 29 Mar 11:35:02 11:36:12 11° 302° (WNW) 11:37:21 437.445
DUCHIFAT 1 29 Mar 11:37:16 11:40:17 19° 64° (ENE) 11:43:19 145.980
AIST 2D 29 Mar 11:51:22 11:54:45 45° 73° (ENE) 11:58:09 435.315
AO-73 29 Mar 11:53:40 11:56:27 17° 297° (WNW) 11:59:11 145.935
LO-87 29 Mar 12:10:33 12:13:42 27° 96° (E) 12:16:51 145.935 - 145.965
FO-29 29 Mar 12:15:52 12:23:06 42° 263° (W) 12:29:54 435.910
NANOSAT C BR1 29 Mar 12:23:37 12:27:49 62° 73° (ENE) 12:32:02 145.865
ESTCUBE 1 29 Mar 12:24:32 12:28:09 23° 94° (E) 12:31:45 437.505/2401.250
Oscar 19 29 Mar 12:28:39 12:29:49 11° 54° (NE) 12:30:58 437.125/150
EO-79 29 Mar 12:30:10 12:34:26 79° 75° (ENE) 12:38:44 145.935-145.965
TIGRISAT 29 Mar 12:31:24 12:33:18 12° 272° (W) 12:35:13 435.000
PCSat 29 Mar 12:34:16 12:37:42 17° 325° (NW) 12:41:10 145.827
NO-84 29 Mar 12:55:42 12:58:34 38° 31° (NNE) 13:01:37 435.350 FM
POLYITAN 1 29 Mar 12:59:28 13:03:39 50° 260° (W) 13:07:50 437.675
RS-15 29 Mar 13:02:59 13:14:31 57° 113° (ESE) 13:26:24 29.354- 29.394
QB50P2 29 Mar 13:04:25 13:08:28 41° 261° (W) 13:12:34 145.880/145.840
Gurwin Techsat 1B 29 Mar 13:06:27 13:09:18 15° 57° (ENE) 13:12:09 435.225
DUCHIFAT 1 29 Mar 13:11:34 13:15:39 44° 261° (W) 13:19:45 145.980
BUGSAT 1 29 Mar 13:14:26 13:18:39 69° 75° (ENE) 13:22:54 437.445
VELOX 1 29 Mar 13:23:04 13:26:58 28° 95° (E) 13:30:49 145.980
AIST 2D 29 Mar 13:26:48 13:28:14 12° 270° (W) 13:29:39 435.315
SPROUT 29 Mar 13:43:06 13:47:10 40° 98° (E) 13:51:11 437.525
LO-87 29 Mar 13:44:11 13:47:02 22° 293° (WNW) 13:49:52 145.935 - 145.965
AO-7 29 Mar 13:59:03 14:04:16 19° 44° (NE) 14:09:27 .
ESTCUBE 1 29 Mar 14:00:53 14:05:04 38° 291° (WNW) 14:09:14 437.505/2401.250
NANOSAT C BR1 29 Mar 14:01:52 14:03:56 13° 270° (W) 14:06:00 145.865
Oscar 19 29 Mar 14:03:07 14:08:11 69° 72° (ENE) 14:13:18 437.125/150
EO-79 29 Mar 14:10:09 14:10:44 10° 272° (W) 14:11:20 145.935-145.965
ITAMSAT 1 29 Mar 14:21:34 14:23:40 12° 55° (NE) 14:25:47 435.822/435.867
50 SAT 29 Mar 14:22:43 14:26:15 87° 103° (ESE) 14:29:46 437.505
DX 1 29 Mar 14:25:24 14:29:43 52° 101° (E) 14:33:59 434.975-435.025
SO-50 29 Mar 14:25:40 14:29:17 23° 113° (ESE) 14:32:53 436.795
NO-84 29 Mar 14:33:20 14:36:01 25° 226° (SW) 14:38:52 435.350 FM
Gurwin Techsat 1B 29 Mar 14:43:09 14:48:29 90° 78° (ENE) 14:53:51 435.225
BUGSAT 1 29 Mar 14:52:52 14:54:28 12° 271° (W) 14:56:05 437.445
UKube-1 29 Mar 14:58:50 15:03:13 84° 104° (ESE) 15:07:33 .
VELOX 1 29 Mar 14:59:27 15:03:23 31° 293° (WNW) 15:07:18 145.980
RS-15 29 Mar 15:15:20 15:27:13 56° 318° (NW) 15:39:23 29.354- 29.394
SPROUT 29 Mar 15:19:36 15:22:49 21° 296° (WNW) 15:26:01 437.525
Oscar 19 29 Mar 15:44:57 15:48:01 16° 270° (W) 15:51:06 437.125/150
AO-7 29 Mar 15:47:21 15:55:35 68° 66° (ENE) 16:03:49 .
ITAMSAT 1 29 Mar 15:57:02 16:02:16 77° 73° (ENE) 16:07:30 435.822/435.867
DX 1 29 Mar 16:02:33 16:05:30 18° 298° (WNW) 16:08:27 434.975-435.025
SO-50 29 Mar 16:04:57 16:09:28 50° 311° (NW) 16:13:56 436.795
MOZHAYETS 4 29 Mar 16:08:12 16:10:58 16° 90° (E) 16:13:44
BEESAT 29 Mar 16:19:22 16:23:57 45° 99° (E) 16:28:30 436.000
Gurwin Techsat 1B 29 Mar 16:27:00 16:29:10 12° 273° (W) 16:31:19 435.225
UKube-1 29 Mar 16:37:02 16:38:34 12° 302° (WNW) 16:40:07 .
ITUPSAT 1 29 Mar 16:37:46 16:42:32 68° 102° (ESE) 16:47:15 437.325
O/OREOS (USA 219) 29 Mar 16:56:11 17:00:12 32° 105° (ESE) 17:04:18 437.305
KKS-1 29 Mar 17:02:51 17:04:32 12° 89° (E) 17:06:13 437.445
CUBESAT XI-V 29 Mar 17:10:04 17:11:55 12° 88° (E) 17:13:45 437.345
DOVE 4 29 Mar 17:23:19 17:26:06 15° 58° (ENE) 17:28:57 437.250
RS-15 29 Mar 17:32:44 17:43:16 31° 350° (N) 17:53:48 29.354- 29.394
ITAMSAT 1 29 Mar 17:39:28 17:42:19 15° 271° (W) 17:45:09 435.822/435.867
AO-7 29 Mar 17:41:55 17:48:55 29° 265° (W) 17:55:58 .
MOZHAYETS 4 29 Mar 17:44:02 17:48:30 57° 288° (WNW) 17:52:57
SO-50 29 Mar 17:49:06 17:51:00 12° 332° (NNW) 17:52:54 436.795
PCSat 29 Mar 17:50:54 17:55:31 27° 44° (NE) 18:00:07 145.827
BEESAT 29 Mar 17:57:45 18:01:26 23° 297° (WNW) 18:05:07 436.000
HO-68 29 Mar 18:10:40 18:14:24 15° 48° (NE) 18:18:08 435.675
CUTE-I 29 Mar 18:11:39 18:16:20 32° 65° (ENE) 18:21:02 437.470
ITUPSAT 1 29 Mar 18:16:55 18:19:50 16° 300° (WNW) 18:22:45 437.325
XW-2F 29 Mar 18:18:05 18:21:16 26° 69° (ENE) 18:24:27 145.980 - 146.000
LilacSat-2 29 Mar 18:25:24 18:28:52 34° 71° (ENE) 18:32:20 437.200
NUDT-PHONESAT 29 Mar 18:33:05 18:36:26 32° 70° (ENE) 18:39:47 437.300
O/OREOS (USA 219) 29 Mar 18:35:37 18:39:37 30° 304° (NW) 18:43:40 437.305
KKS-1 29 Mar 18:37:07 18:41:37 75° 286° (WNW) 18:46:04 437.445
KAITUO 1B 29 Mar 18:44:34 18:48:08 44° 72° (ENE) 18:51:42 145.475/437.950
CUBESAT XI-V 29 Mar 18:45:10 18:49:50 78° 286° (WNW) 18:54:30 437.345
XW-2D 29 Mar 18:45:37 18:49:21 59° 74° (ENE) 18:53:05 145.860 - 145.880
YUBILEINY 29 Mar 18:46:36 18:54:49 43° 71° (ENE) 19:03:00 435.215
XW-2B 29 Mar 18:51:37 18:55:23 67° 75° (ENE) 18:59:09 145.730 - 145.750
DOVE 4 29 Mar 18:58:15 19:03:02 79° 257° (WSW) 19:08:10 437.250
XW-2C 29 Mar 19:01:56 19:05:44 89° 256° (WSW) 19:09:33 145.795 - 145.815
CUTE 1.7 + AOD 2 29 Mar 19:03:10 19:05:11 13° 61° (ENE) 19:07:14 437.475
STARS 29 Mar 19:03:36 19:08:04 86° 281° (WNW) 19:12:28 437.465
CUBEBUG 2 29 Mar 19:21:52 19:23:46 12° 59° (ENE) 19:25:41 437.445
XW-2A 29 Mar 19:24:20 19:27:01 21° 68° (ENE) 19:29:43 145.665 - 145.685
PCSat 29 Mar 19:33:57 19:39:17 58° 244° (WSW) 19:44:35 145.827
RS-15 29 Mar 19:49:12 20:00:27 37° 25° (NNE) 20:11:23 29.354- 29.394
M-CUBED/EXP-1 PRIME 29 Mar 19:49:57 19:54:11 33° 101° (ESE) 19:58:23 437.505
CUTE-I 29 Mar 19:51:16 19:56:16 39° 263° (W) 20:01:17 437.470
XW-2F 29 Mar 19:52:17 19:55:23 24° 265° (W) 19:58:29 145.980 - 146.000
HO-68 29 Mar 19:53:46 20:00:49 65° 68° (ENE) 20:07:53 435.675
AAUSAT CUBESAT 2 29 Mar 19:58:22 20:00:58 17° 64° (ENE) 20:03:35 437.432
LilacSat-2 29 Mar 20:00:32 20:03:15 18° 267° (W) 20:05:58 437.200
Tancredo 1 29 Mar 20:00:36 20:02:47 17° 135° (SE) 20:04:58 437.200
NUDT-PHONESAT 29 Mar 20:07:43 20:10:26 19° 267° (W) 20:13:09 437.300
AO-85 29 Mar 20:08:31 20:10:42 14° 111° (ESE) 20:12:49 145.980
UWE-3 29 Mar 20:15:00 20:18:42 24° 66° (ENE) 20:22:22 435.000/436.395/437.385
ISS 29 Mar 20:16:12 20:18:46 22° 137° (SE) 20:21:22 437.550
KAITUO 1B 29 Mar 20:20:23 20:22:23 14° 269° (W) 20:24:25 145.475/437.950
SEEDS 29 Mar 20:22:45 20:26:49 57° 73° (ENE) 20:30:55 437.485
XW-2D 29 Mar 20:22:50 20:23:55 11° 271° (W) 20:25:00 145.860 - 145.880
CUBESAT XI-V 29 Mar 20:25:40 20:26:24 10° 303° (WNW) 20:27:09 437.345
Oscar 11 29 Mar 20:34:42 20:37:31 17° 63° (ENE) 20:40:20 .
CUTE 1.7 + AOD 2 29 Mar 20:36:20 20:40:30 66° 258° (WSW) 20:44:42 437.475
STARS 29 Mar 20:42:37 20:43:40 11° 303° (WNW) 20:44:43 437.465
YUBILEINY 29 Mar 20:43:32 20:51:39 46° 273° (W) 20:59:47 435.215
ZACube-1 29 Mar 20:47:28 20:51:23 29° 68° (ENE) 20:55:13 437.345
CUBEBUG 2 29 Mar 20:54:56 20:59:41 90° 121° (ESE) 21:04:25 437.445
XW-2A 29 Mar 20:56:50 20:59:42 24° 265° (W) 21:02:33 145.665 - 145.685
STRAND 1 29 Mar 21:01:26 21:06:31 61° 101° (ESE) 21:11:32 437.568
AO-73 29 Mar 21:13:15 21:17:34 48° 72° (ENE) 21:21:49 145.935
SO-50 29 Mar 21:16:03 21:16:32 10° 23° (NNE) 21:16:59 436.795
M-CUBED/EXP-1 PRIME 29 Mar 21:24:23 21:28:31 32° 298° (WNW) 21:32:39 437.505
AAUSAT CUBESAT 2 29 Mar 21:32:05 21:36:03 48° 261° (W) 21:40:04 437.432
Tancredo 1 29 Mar 21:35:26 21:38:35 69° 333° (NNW) 21:41:45 437.200
HO-68 29 Mar 21:43:13 21:49:01 26° 267° (W) 21:54:53 435.675
AO-85 29 Mar 21:46:17 21:50:39 70° 307° (NW) 21:54:44 145.980
UWE-3 29 Mar 21:50:35 21:54:57 39° 263° (W) 21:59:16 435.000/436.395/437.385
ISS 29 Mar 21:51:47 21:55:01 60° 335° (NNW) 21:58:16 437.550
BEESAT 3 29 Mar 21:59:11 22:01:59 19° 113° (ESE) 22:04:50 437.485
SEEDS 29 Mar 22:00:51 22:02:53 13° 270° (W) 22:04:56 437.485
RS-15 29 Mar 22:02:36 22:15:02 83° 54° (NE) 22:26:53 29.354- 29.394
Oscar 11 29 Mar 22:09:04 22:13:16 51° 260° (W) 22:17:29 .
DELFI C3 29 Mar 22:19:09 22:23:01 63° 75° (ENE) 22:26:56 145.870
ZACube-1 29 Mar 22:23:37 22:27:36 30° 265° (W) 22:31:32 437.345
BEESAT 2 29 Mar 22:23:45 22:25:49 14° 110° (ESE) 22:27:55 435.950
PRISM 29 Mar 22:33:51 22:37:03 21° 94° (E) 22:40:13 437.425
CUBEBUG 2 29 Mar 22:35:58 22:36:55 11° 273° (W) 22:37:52 437.445
STRAND 1 29 Mar 22:41:36 22:45:14 20° 299° (WNW) 22:48:51 437.568
TIGRISAT 29 Mar 22:42:48 22:44:55 13° 89° (E) 22:47:00 435.000
LO-87 29 Mar 22:49:19 22:51:38 16° 65° (ENE) 22:53:58 145.935 - 145.965
AO-73 29 Mar 22:50:55 22:54:01 18° 268° (W) 22:57:07 145.935
UNISAT 6 29 Mar 22:53:19 22:56:25 19° 92° (E) 22:59:28 437.425
